Location: Newark
(49.2191°N, 12.6671°E)
Time: 16:36:42
(UTC+00:00)

Transit 2A Rocket - All Passes

Search period start: 19 January 2020 00:00
Search period end: 29 January 2020 00:00
Orbit: 593 x 910 km, 66.7° (Epoch: 18 January)

Date Brightness Start Highest point End Pass type
(mag) Time Alt. Az. Time Alt. Az. Time Alt. Az.
19 Jan - 05:02:14 10° SSE 05:05:20 19° ESE 05:08:26 10° ENE visible
19 Jan - 06:43:12 10° SW 06:47:27 57° NW 06:51:46 10° NNE daylight
19 Jan - 08:28:33 10° WNW 08:30:59 14° NNW 08:33:26 10° N daylight
19 Jan - 11:57:40 10° N 12:00:17 15° NNE 12:02:59 10° ENE daylight
19 Jan - 13:39:16 10° NNW 13:43:51 51° NE 13:48:49 10° SE daylight
19 Jan - 15:22:07 10° NW 15:26:13 28° WSW 15:30:36 10° S daylight
20 Jan - 04:22:03 10° ESE 04:23:08 11° ESE 04:24:13 10° E visible
20 Jan - 06:00:34 10° SSW 06:04:52 85° SE 06:09:15 10° NE visible
20 Jan - 07:44:52 10° W 07:48:01 19° NNW 07:51:15 10° NNE daylight
20 Jan - 11:15:36 10° N 11:17:14 12° NNE 11:18:54 10° NE daylight
20 Jan - 12:56:53 10° NNW 13:01:09 34° NE 13:05:45 10° ESE daylight
20 Jan - 14:39:16 10° NW 14:43:50 46° WSW 14:48:47 10° S daylight
21 Jan - 05:18:16 10° SSW 05:22:24 48° ESE 05:26:36 10° NE visible
21 Jan - 07:01:27 10° W 07:05:09 27° NW 07:08:57 10° NNE daylight
21 Jan - 12:14:33 10° NNW 12:18:21 24° NE 12:22:24 10° E daylight
21 Jan - 13:56:37 10° NW 14:01:21 75° WSW 14:06:33 10° SSE daylight
21 Jan - 15:41:19 10° W 15:43:14 12° WSW 15:45:12 10° SW daylight
22 Jan - 04:36:23 10° S 04:40:03 28° ESE 04:43:45 10° NE visible
22 Jan - 06:18:19 10° WSW 06:22:24 41° NW 06:26:35 10° NNE visible
22 Jan - 08:04:20 10° NW 08:06:11 12° NNW 08:08:04 10° N daylight
22 Jan - 11:32:17 10° NNW 11:35:27 18° NNE 11:38:47 10° ENE daylight
22 Jan - 13:14:04 10° NNW 13:18:48 69° NE 13:23:58 10° SE daylight
22 Jan - 14:57:23 10° WNW 15:00:59 21° WSW 15:04:47 10° SSW daylight
23 Jan - 03:55:08 10° SSE 03:57:47 16° ESE 04:00:26 10° ENE visible
23 Jan - 05:35:29 10° SW 05:39:46 68° NW 05:44:08 10° NNE visible
23 Jan - 07:20:27 10° WNW 07:23:10 16° NNW 07:25:57 10° N daylight
23 Jan - 10:50:06 10° N 10:52:28 14° NNE 10:54:55 10° NE daylight
23 Jan - 12:31:38 10° NNW 12:36:10 44° NE 12:41:05 10° ESE daylight
23 Jan - 14:14:18 10° NW 14:18:39 33° WSW 14:23:19 10° S daylight
24 Jan - 04:52:57 10° SSW 04:57:14 71° ESE 05:01:35 10° NE visible
24 Jan - 06:36:52 10° W 06:40:14 22° NW 06:43:42 10° NNE daylight
24 Jan - 10:08:07 10° N 10:09:23 11° NNE 10:10:41 10° NNE daylight
24 Jan - 11:49:16 10° NNW 11:53:26 30° NE 11:57:54 10° ESE daylight
24 Jan - 13:31:32 10° NW 13:36:14 55° WSW 13:41:21 10° SSE daylight
25 Jan - 04:10:47 10° S 04:14:48 40° ESE 04:18:53 10° NE visible
25 Jan - 05:53:33 10° WSW 05:57:25 31° NW 06:01:23 10° NNE visible
25 Jan - 07:40:19 10° NNW 07:41:26 11° NNW 07:42:33 10° N daylight
25 Jan - 11:06:57 10° NNW 11:10:36 22° NE 11:14:28 10° E daylight
25 Jan - 12:48:55 10° NW 12:53:43 88° SW 12:58:58 10° SSE daylight
25 Jan - 14:32:57 10° WNW 14:35:43 15° WSW 14:38:36 10° SW daylight
26 Jan - 03:29:05 10° SSE 03:32:28 23° ESE 03:35:54 10° ENE visible
26 Jan - 05:10:32 10° SW 05:14:42 49° NW 05:18:59 10° NNE visible
26 Jan - 06:56:09 10° NW 06:58:22 13° NNW 07:00:37 10° N daylight
26 Jan - 10:24:43 10° N 10:27:41 16° NNE 10:30:46 10° ENE daylight
26 Jan - 12:06:26 10° NNW 12:11:09 59° NE 12:16:17 10° SE daylight
26 Jan - 13:49:29 10° WNW 13:53:26 25° WSW 13:57:39 10° SSW daylight
27 Jan - 02:48:14 10° SE 02:50:15 13° ESE 02:52:16 10° ENE visible
27 Jan - 04:27:47 10° SW 04:32:05 82° NW 04:36:30 10° NE visible
27 Jan - 06:12:23 10° WNW 06:15:22 18° NNW 06:18:26 10° NNE visible
27 Jan - 09:42:33 10° N 09:44:39 13° NNE 09:46:48 10° NE daylight
27 Jan - 11:24:01 10° NNW 11:28:28 39° NE 11:33:18 10° ESE daylight
27 Jan - 13:06:32 10° NW 13:11:04 40° WSW 13:15:59 10° S daylight
28 Jan - 03:45:23 10° SSW 03:49:36 58° ESE 03:53:54 10° NE visible
28 Jan - 05:28:54 10° W 05:32:28 25° NW 05:36:09 10° NNE visible
28 Jan - 09:00:41 10° N 09:01:33 10° NNE 09:02:25 10° NNE daylight
28 Jan - 10:41:40 10° NNW 10:45:42 27° NE 10:50:02 10° E daylight
28 Jan - 12:23:49 10° NW 12:28:37 65° WSW 12:33:51 10° SSE daylight
28 Jan - 14:09:35 10° W 14:10:24 10° WSW 14:11:13 10° WSW daylight
